Temp
19 19 20 19 20 19 19 18 18 18 18 18 18 18 18 18 18 18 18 18 18 18 18 18 18 18 18 18 18 18 18 17 17 17 17 17 17 17 17 17 17 17 17
20 20 20 20 20 19 19 19 18 19 19 18 19 19 18 19 19 18 18 18 18 18 18 18 18 18 18 18 18 18 17 17 17 17 17 17 17 17 17 16 17 17 17
21 21 20 20 20 20 20 19 19 19 19 19 19 19 19 19 19 18 18 18 18 18 18 17 18 18 18 18 18 17 17 17 17 17 17 17 17 17 17 16 16 16 16
21 21 21 20 20 20 20 20 19 19 19 19 20 20 20 20 19 19 18 18 19 18 18 17 17 17 17 17 17 18 17 17 17 17 16 16 17 17 16 16 16 16 16
20 20 20 20 20 20 20 20 20 20 20 20 20 20 20 20 20 20 19 19 19 19 19 18 17 17 17 17 17 17 17 17 16 16 16 16 16 16 16 16 16 16 16
21 20 20 20 20 19 19 19 19 20 20 20 20 20 20 20 20 20 20 20 20 19 19 19 18 17 17 17 17 17 16 16 16 16 16 16 16 16 16 16 16 15 15
21 20 19 19 19 19 19 19 19 19 20 20 20 20 20 20 20 20 20 20 20 20 20 19 19 18 17 16 17 16 16 16 16 16 16 15 16 16 16 16 16 15 15
21 20 19 19 19 19 19 18 19 19 19 20 20 20 20 20 20 20 20 20 20 20 20 19 19 18 16 16 16 16 16 16 15 15 15 15 16 16 16 16 16 16 15
20 20 19 19 19 19 19 19 18 18 19 19 20 20 20 20 20 20 20 20 20 20 20 20 19 19 19 17 15 15 15 15 15 15 15 15 15 15 15 15 16 15 15
20 20 20 19 19 19 19 19 18 18 18 19 19 19 19 19 20 20 20 20 20 20 20 20 19 19 18 18 16 15 15 15 15 15 15 15 14 14 14 14 15 15 15
20 20 20 20 20 20 19 19 19 18 18 18 19 19 19 19 19 19 19 19 19 19 19 19 19 19 19 18 16 16 16 15 15 15 15 14 14 14 13 13 14 14 15
21 21 20 20 20 20 19 19 19 19 18 18 19 19 19 19 19 19 19 19 19 19 19 19 19 19 18 18 17 17 16 16 16 15 15 14 15 15 15 14 13 13 15
22 21 21 21 21 20 20 19 19 19 18 18 18 18 18 19 19 19 19 19 19 19 18 18 19 18 18 17 17 17 17 16 16 15 15 15 15 15 15 14 14 14 14
21 21 21 21 21 21 20 20 19 19 19 18 18 18 18 18 18 18 18 18 18 18 18 18 18 18 18 17 17 16 17 16 16 16 15 15 16 15 15 14 13 13 13
22 22 22 21 21 21 21 20 20 20 19 19 18 18 18 18 18 17 17 17 18 18 18 18 18 18 17 17 16 16 16 16 16 16 15 15 16 15 15 14 14 13 13
21 21 20 21 22 21 21 21 21 21 20 19 19 19 18 18 17 17 17 17 17 17 17 17 17 17 17 17 16 16 15 15 15 15 15 15 15 15 15 15 14 14 14
19 20 21 20 19 20 22 22 21 21 20 19 20 19 18 18 17 17 17 16 16 17 17 17 17 17 16 16 16 15 15 15 15 15 15 14 14 15 15 14 14 14 14
17 18 19 20 18 18 18 19 18 19 20 19 19 18 18 18 17 17 16 16 16 16 16 16 16 16 16 16 16 15 15 14 14 14 14 14 13 13 13 13 13 13 13
14 16 16 17 17 17 16 16 17 18 17 17 18 18 18 18 17 17 17 16 16 16 15 15 16 16 16 16 15 15 14 14 13 13 13 13 13 12 12 12 12 13 13
14 15 15 15 15 15 16 16 16 16 16 17 17 18 18 18 17 17 17 16 16 15 15 15 15 15 15 15 14 14 14 14 13 13 13 12 12 12 12 11 11 12 12
14 14 15 15 15 15 15 15 15 15 15 15 15 16 16 16 17 17 16 16 16 15 15 15 14 14 14 14 14 13 13 13 13 13 12 12 11 11 11 11 10 11 11
13 13 13 13 14 14 15 15 14 14 14 14 14 14 15 15 16 16 16 16 16 16 15 15 14 14 14 13 13 13 12 13 13 13 11 11 11 11 10 10 10 10 10
11 11 12 12 11 11 12 14 15 15 15 15 14 14 14 14 14 15 15 15 16 15 15 15 14 14 13 13 13 13 13 13 13 13 12 11 10 10 10 10 10 9 9
10 11 11 11 11 10 10 10 11 11 11 12 12 12 13 13 13 14 14 15 15 15 15 15 14 13 13 13 12 12 12 13 13 12 12 11 10 10 9 9 9 9 8
10 10 10 10 10 10 10 10 10 10 10 10 10 11 12 12 12 12 12 14 14 15 15 14 14 13 13 13 12 12 12 12 11 12 12 12 11 10 9 9 9 9 8
10 10 10 9 9 9 9 9 9 9 9 9 10 9 9 10 10 11 11 11 13 13 14 14 14 13 13 12 12 12 12 12 13 12 11 11 11 10 9 9 9 8 8
Height
1542 1543 1545 1546 1547 1548 1548 1549 1549 1550 1550 1549 1549 1549 1548 1548 1548 1548 1547 1547 1547 1548 1547 1547 1547 1546 1546 1546 1546 1546 1547 1547 1547 1548 1548 1549 1549 1549 1549 1549 1549 1548 1547
1540 1542 1543 1545 1546 1547 1548 1549 1550 1550 1550 1549 1549 1549 1548 1548 1548 1549 1548 1548 1548 1548 1548 1548 1548 1547 1547 1546 1546 1547 1548 1548 1549 1549 1550 1550 1551 1550 1551 1551 1550 1549 1549
1539 1541 1543 1544 1546 1546 1547 1548 1549 1549 1549 1549 1549 1548 1548 1548 1548 1548 1548 1548 1548 1548 1549 1549 1548 1548 1548 1548 1548 1548 1549 1549 1550 1551 1551 1552 1552 1552 1552 1552 1551 1551 1551
1540 1541 1543 1544 1545 1546 1546 1547 1547 1548 1548 1548 1548 1548 1547 1547 1547 1548 1548 1548 1547 1547 1548 1549 1549 1549 1549 1549 1549 1549 1550 1550 1551 1552 1552 1552 1552 1552 1552 1553 1552 1551 1552
1539 1541 1542 1543 1544 1545 1545 1545 1546 1547 1547 1548 1548 1548 1548 1547 1547 1547 1547 1547 1547 1547 1547 1548 1549 1550 1550 1550 1550 1550 1551 1551 1551 1553 1553 1553 1553 1552 1552 1552 1552 1552 1552
1537 1539 1541 1542 1543 1544 1545 1545 1545 1546 1547 1547 1547 1548 1548 1547 1547 1548 1547 1547 1547 1547 1546 1547 1548 1549 1550 1550 1551 1551 1552 1552 1553 1553 1553 1553 1553 1553 1552 1552 1552 1552 1552
1535 1538 1540 1542 1543 1543 1544 1545 1545 1545 1546 1546 1547 1547 1547 1548 1547 1548 1547 1547 1546 1546 1547 1547 1547 1548 1549 1550 1551 1551 1552 1553 1553 1553 1553 1552 1552 1553 1553 1552 1552 1552 1552
1535 1538 1540 1541 1542 1543 1543 1543 1544 1544 1545 1546 1546 1547 1547 1547 1547 1547 1547 1546 1546 1546 1546 1546 1546 1546 1548 1548 1549 1551 1551 1552 1552 1552 1551 1551 1551 1551 1551 1552 1552 1552 1552
1534 1536 1537 1538 1540 1541 1542 1542 1543 1544 1545 1545 1546 1546 1547 1547 1547 1547 1546 1546 1545 1545 1545 1545 1545 1546 1546 1547 1548 1549 1549 1549 1549 1550 1550 1550 1550 1551 1550 1550 1551 1551 1551
1533 1534 1535 1537 1539 1540 1540 1540 1541 1543 1544 1544 1545 1545 1546 1546 1546 1546 1546 1546 1545 1545 1544 1544 1544 1545 1545 1546 1546 1547 1547 1548 1547 1548 1549 1549 1549 1549 1550 1549 1549 1550 1550
1533 1534 1536 1537 1538 1538 1538 1538 1539 1540 1541 1542 1543 1544 1545 1546 1546 1546 1546 1546 1545 1545 1544 1544 1544 1544 1544 1545 1545 1545 1545 1546 1546 1546 1547 1547 1547 1548 1548 1549 1549 1548 1549
1532 1532 1533 1534 1534 1535 1536 1537 1538 1539 1541 1541 1542 1543 1544 1544 1545 1546 1546 1546 1545 1545 1544 1544 1544 1544 1544 1544 1544 1544 1544 1545 1545 1545 1545 1545 1546 1545 1545 1546 1547 1547 1547
1528 1529 1529 1529 1531 1533 1533 1535 1536 1537 1538 1539 1540 1541 1542 1543 1544 1544 1545 1545 1544 1544 1544 1544 1543 1543 1543 1543 1543 1542 1543 1543 1544 1544 1544 1543 1543 1543 1543 1544 1544 1545 1546
1524 1524 1526 1527 1527 1528 1529 1530 1532 1534 1535 1537 1538 1538 1539 1541 1542 1543 1543 1544 1544 1544 1543 1543 1543 1542 1542 1542 1542 1541 1542 1542 1542 1542 1542 1542 1541 1541 1542 1542 1543 1543 1544
1525 1522 1521 1522 1523 1523 1524 1526 1527 1529 1530 1533 1534 1536 1536 1538 1540 1541 1542 1542 1543 1543 1543 1542 1542 1542 1541 1541 1541 1541 1540 1540 1540 1541 1541 1540 1540 1539 1540 1540 1540 1541 1541
1522 1522 1522 1520 1519 1520 1519 1520 1520 1522 1524 1526 1528 1530 1531 1533 1536 1537 1539 1540 1541 1541 1541 1541 1541 1540 1540 1540 1540 1540 1539 1539 1539 1538 1539 1538 1538 1537 1537 1538 1538 1538 1538
1516 1516 1515 1516 1519 1520 1515 1516 1516 1517 1518 1521 1522 1524 1526 1528 1530 1532 1534 1536 1538 1539 1539 1539 1538 1538 1538 1538 1538 1537 1537 1537 1537 1537 1537 1536 1536 1535 1535 1536 1536 1535 1535
1517 1513 1513 1513 1514 1516 1517 1517 1518 1516 1514 1515 1518 1520 1523 1524 1526 1527 1529 1531 1534 1535 1536 1536 1536 1536 1535 1536 1535 1535 1535 1534 1534 1534 1534 1534 1534 1534 1533 1534 1534 1533 1533
1519 1515 1512 1510 1510 1512 1513 1514 1515 1514 1515 1518 1517 1517 1518 1519 1520 1522 1524 1526 1529 1530 1531 1532 1533 1533 1533 1532 1532 1532 1532 1532 1531 1531 1531 1532 1532 1531 1531 1531 1531 1531 1530
1521 1518 1515 1512 1510 1509 1510 1511 1510 1510 1512 1513 1515 1515 1515 1514 1515 1517 1519 1521 1523 1525 1527 1528 1529 1530 1530 1530 1530 1529 1528 1528 1528 1527 1528 1528 1528 1529 1528 1528 1528 1528 1528
1523 1520 1516 1514 1513 1511 1508 1507 1506 1506 1507 1509 1512 1512 1513 1515 1512 1513 1515 1516 1517 1518 1520 1524 1525 1526 1526 1527 1526 1525 1524 1524 1524 1524 1524 1524 1524 1525 1525 1525 1525 1525 1525
1525 1522 1519 1516 1514 1513 1511 1509 1507 1505 1504 1504 1505 1508 1511 1511 1510 1511 1509 1510 1512 1512 1514 1516 1518 1520 1522 1522 1522 1522 1521 1520 1518 1519 1520 1520 1521 1521 1522 1522 1522 1523 1522
1525 1523 1521 1518 1515 1512 1509 1507 1505 1504 1502 1501 1501 1501 1502 1503 1506 1505 1505 1506 1506 1507 1508 1509 1511 1513 1515 1518 1517 1519 1517 1514 1513 1514 1515 1516 1517 1517 1519 1518 1518 1519 1519
1526 1524 1521 1518 1515 1512 1509 1506 1505 1505 1502 1500 1498 1497 1496 1496 1497 1499 1498 1498 1499 1500 1501 1502 1504 1505 1508 1511 1512 1512 1512 1512 1511 1511 1511 1512 1513 1513 1514 1515 1515 1515 1515
1525 1521 1519 1517 1514 1511 1509 1506 1504 1501 1499 1495 1493 1491 1490 1489 1490 1489 1489 1490 1490 1491 1493 1495 1497 1498 1499 1502 1504 1506 1507 1507 1507 1508 1506 1507 1508 1509 1510 1511 1511 1511 1512
1522 1518 1515 1513 1512 1509 1506 1502 1499 1495 1493 1489 1487 1485 1483 1481 1480 1481 1479 1478 1480 1481 1484 1486 1488 1490 1492 1493 1496 1498 1500 1501 1500 1502 1501 1502 1503 1504 1505 1506 1506 1507 1507
Wind_Speed
12 10 10 8 7 8 8 8 8 5 6 7 8 7 7 6 6 8 10 10 9 10 12 11 11 11 12 11 11 11 13 13 13 13 13 12 13 14 13 12 12 13 14
8 13 12 9 7 8 8 7 6 4 4 5 5 5 4 4 5 7 9 10 10 9 10 11 11 12 12 11 13 14 14 15 15 14 12 10 10 11 11 10 11 13 14
10 13 13 11 8 7 8 7 6 5 5 5 4 3 3 4 5 7 7 8 10 10 9 9 10 11 12 12 13 14 13 12 12 12 11 9 7 6 7 8 8 10 12
6 11 12 11 9 8 8 7 7 6 6 5 4 3 4 5 6 7 8 8 9 10 10 9 9 11 12 14 13 12 10 11 13 11 9 7 4 5 5 5 6 8 9
8 9 10 11 11 10 9 9 8 6 6 4 4 4 5 6 6 7 6 7 8 10 10 10 9 10 12 13 12 11 9 11 11 8 3 3 3 5 4 3 4 5 5
10 9 10 9 10 10 10 10 9 7 6 5 4 4 5 6 6 6 5 4 5 7 9 10 10 11 12 12 11 10 10 9 7 5 3 0 2 3 2 1 2 3 3
10 9 9 9 7 10 12 11 10 9 7 6 5 5 5 5 6 5 4 4 3 3 4 7 11 12 12 12 11 10 10 9 8 7 3 4 4 2 1 0 1 2 2
6 9 8 7 9 11 13 13 12 12 10 8 7 6 5 5 4 4 4 3 3 3 4 6 8 12 13 13 12 11 10 10 10 9 10 10 5 3 3 3 2 2 1
13 13 13 12 10 12 13 15 14 14 12 10 9 8 7 6 4 3 3 3 3 3 4 5 7 9 10 12 14 12 12 12 11 10 9 8 5 2 2 5 5 3 1
15 18 17 16 14 12 10 16 16 16 14 12 11 10 9 8 7 4 3 2 2 3 4 5 6 8 9 11 13 14 14 13 12 8 6 4 7 8 4 2 3 3 3
19 21 20 18 17 14 12 10 14 18 17 15 14 12 11 10 9 7 4 3 2 2 3 4 6 7 9 12 14 14 14 13 11 8 6 6 7 5 6 5 7 7 7
23 23 23 22 20 17 15 14 12 15 19 18 16 15 13 13 12 9 6 4 2 2 4 4 5 6 7 9 13 13 12 12 11 9 8 8 8 6 5 7 7 7 7
22 25 25 24 22 19 17 17 17 14 18 21 19 18 17 16 15 13 10 7 4 3 3 4 6 7 8 9 11 12 12 12 11 10 9 9 10 8 5 6 7 7 8
28 29 28 28 27 23 21 19 19 18 15 18 21 21 21 19 18 16 13 10 8 6 5 5 6 8 9 10 11 13 12 12 11 11 9 10 9 9 8 8 9 9 10
28 30 32 33 32 29 26 22 21 22 21 18 16 21 25 23 20 18 16 14 12 10 7 7 7 8 9 10 11 12 12 12 12 11 11 11 10 10 10 10 10 11 11
27 30 29 39 36 34 32 27 25 24 23 23 21 20 21 25 23 21 19 18 17 14 11 9 8 8 10 11 12 13 13 12 12 12 12 11 11 11 11 10 10 11 12
4 12 19 23 37 38 36 33 31 28 27 27 24 22 21 21 23 23 23 22 20 18 15 14 12 11 11 11 13 13 14 14 13 12 11 11 11 11 10 10 9 10 11
18 10 2 6 19 26 36 39 38 36 31 31 30 27 25 23 21 22 26 26 23 21 20 19 16 15 13 13 13 14 15 14 13 13 12 11 11 10 10 9 9 9 10
30 23 19 11 2 10 12 18 33 38 37 36 34 31 29 27 25 24 25 26 26 26 25 23 21 18 17 16 15 15 16 16 15 14 13 12 12 10 10 9 9 11 11
27 28 26 23 20 13 4 6 7 17 30 36 36 36 34 31 31 30 27 26 28 29 29 28 25 23 21 18 18 18 18 17 17 17 15 14 14 12 10 9 8 8 10
28 28 29 26 24 21 21 16 9 7 9 20 35 36 37 38 35 34 31 29 29 31 33 31 29 27 25 22 21 21 20 20 21 19 17 15 15 14 12 10 9 9 8
32 31 30 29 26 23 23 23 21 18 10 10 14 29 36 39 40 40 36 34 33 32 34 35 34 33 30 26 24 21 17 20 24 22 20 17 15 14 13 11 11 10 10
33 32 30 27 26 27 27 24 21 18 13 14 11 11 22 33 40 43 43 40 36 35 35 37 37 36 34 31 29 22 8 12 11 20 23 19 17 15 13 13 12 12 13
29 30 28 27 24 23 25 25 23 21 22 22 22 22 18 19 29 44 47 46 43 40 37 37 38 38 36 35 32 31 30 20 10 8 18 21 20 19 16 15 15 15 15
28 32 29 29 23 21 24 27 26 24 25 26 27 28 27 23 22 26 43 51 50 46 41 38 38 40 40 38 37 36 32 31 26 20 13 20 22 22 20 20 19 17 17
28 32 34 25 21 19 23 25 29 33 33 32 31 33 34 33 31 28 28 37 54 53 47 41 39 39 41 41 39 38 37 34 33 30 26 20 22 23 24 23 21 21 21
Wind_Direction
193 200 190 186 183 167 159 147 151 145 118 115 107 108 98 100 85 86 93 93 103 93 88 89 89 85 85 92 97 100 105 109 106 107 111 111 112 103 105 92 89 75 64
199 193 192 191 187 176 172 167 152 153 149 137 128 129 129 117 111 120 104 101 105 109 98 95 91 91 94 98 103 107 107 107 103 102 105 109 109 102 103 89 77 71 59
189 193 195 194 190 180 176 170 156 151 147 154 151 134 125 121 121 135 128 111 107 109 112 105 102 99 105 110 115 115 115 117 106 102 105 100 110 114 104 93 72 65 54
202 196 199 195 189 185 172 162 159 155 155 156 148 131 119 121 122 124 136 138 124 118 115 119 117 112 115 124 130 123 110 104 119 95 91 77 100 118 120 97 83 56 49
206 199 207 198 190 191 184 173 168 164 163 163 149 135 124 115 114 121 136 143 140 135 133 127 126 126 127 137 142 130 117 114 96 83 64 44 106 114 120 99 74 52 44
204 198 189 193 201 204 198 190 182 181 181 176 165 144 133 121 111 116 128 140 141 146 142 145 142 140 142 151 154 147 129 112 100 106 204 246 88 114 115 75 37 37 35
207 203 213 231 235 223 208 205 199 192 196 192 186 169 149 134 118 112 120 129 137 150 157 158 156 154 157 164 168 160 154 148 156 170 210 249 194 159 140 17 2 4 14
222 215 235 258 263 252 224 216 211 206 204 208 198 188 175 159 138 122 125 126 140 150 162 173 173 159 164 173 179 178 179 185 191 203 212 228 203 237 239 257 278 314 353
219 231 238 251 277 265 258 236 220 219 213 212 211 203 193 184 170 146 125 131 143 156 162 171 181 188 181 180 185 194 197 205 212 225 212 136 133 151 222 243 244 249 262
224 235 241 250 267 280 282 251 232 224 224 221 218 216 210 204 196 187 158 141 147 161 171 177 184 190 183 186 191 199 207 216 236 238 214 183 197 191 145 181 165 204 232
226 236 241 254 268 284 267 270 254 236 228 227 226 224 221 220 212 207 192 171 161 174 198 197 194 198 198 194 195 208 216 224 237 245 242 252 268 188 191 196 191 184 182
226 231 242 255 262 271 263 261 269 264 243 236 235 236 231 228 221 220 222 214 194 198 210 214 211 208 207 204 206 214 225 231 238 247 251 266 269 249 210 193 194 199 208
244 237 246 253 257 259 264 266 262 281 257 246 242 241 238 236 232 230 233 238 234 234 232 229 224 221 212 209 212 217 224 234 240 247 254 263 265 260 243 214 213 220 221
234 243 248 251 253 257 254 259 262 263 284 262 252 251 248 244 242 237 238 239 241 242 243 239 241 239 232 224 221 229 230 235 242 251 258 262 266 260 245 231 227 230 232
245 249 250 249 251 253 254 253 255 260 266 278 273 262 258 254 250 247 245 245 244 246 246 243 244 246 242 235 227 232 235 240 245 250 257 263 266 267 257 243 241 239 241
258 254 259 247 250 251 253 256 264 261 264 263 271 272 270 263 258 255 252 251 249 249 248 246 249 247 243 243 242 240 242 244 249 249 254 262 264 264 263 257 250 247 245
297 258 270 265 245 240 253 260 258 262 258 256 265 267 272 269 264 266 259 256 255 255 256 255 252 248 248 246 244 244 248 249 250 255 256 259 264 266 262 262 257 253 251
58 55 306 267 230 244 244 244 248 249 256 256 257 260 267 275 274 270 264 261 256 255 255 254 254 253 254 254 250 248 246 249 248 254 257 257 260 262 263 260 258 254 253
49 54 56 64 86 241 247 255 253 252 248 250 258 261 268 271 270 273 273 269 261 256 255 254 253 254 257 260 258 252 248 248 253 258 259 261 261 260 264 261 259 257 259
38 39 41 45 53 54 28 280 257 253 259 249 249 259 267 268 266 267 273 275 265 259 256 253 253 253 256 256 254 254 253 252 252 256 260 265 261 262 255 265 270 271 264
29 25 24 24 22 21 23 20 345 337 283 257 248 245 248 261 266 265 267 271 270 263 260 257 256 255 255 252 251 254 254 253 253 254 253 261 259 261 258 258 265 274 262
25 22 18 14 10 5 360 1 1 5 7 347 280 257 252 251 257 265 267 268 267 267 262 254 252 254 254 249 247 252 258 257 251 247 243 247 252 250 249 256 265 272 274
21 17 12 8 4 1 353 346 341 332 326 323 322 301 266 262 252 260 265 266 266 266 266 260 255 254 254 251 249 241 234 238 240 240 237 238 240 247 248 255 263 273 282
15 12 9 4 3 357 356 354 354 348 338 325 319 316 304 285 263 253 259 263 266 265 264 265 259 254 251 250 247 246 241 250 238 238 233 230 233 238 247 252 256 268 276
4 5 6 0 356 357 349 345 347 343 334 323 317 312 307 301 287 267 260 259 261 262 264 262 260 255 250 249 248 250 246 243 246 241 238 228 231 232 238 244 252 262 270
358 356 357 359 349 344 345 346 345 338 333 329 325 322 318 313 307 299 280 270 257 258 257 260 261 258 254 252 251 250 249 247 246 240 239 238 236 233 235 242 253 263 268